Previsão horária em Abramok

Hoje, 18 Maio, Terça-feira

Tempo Temperatura Precipitação Vento Pressão Humidade
00:00 +14°C° 0.6 mm 1 m/s 730 mmHg 93%
01:00 +14°C° 0.6 mm 1 m/s 730 mmHg 94%
02:00 +14°C° 0.6 mm 1 m/s 730 mmHg 96%
03:00 +13°C° 0.3 mm 1 m/s 730 mmHg 96%
04:00 +13°C° 0.3 mm 1 m/s 730 mmHg 96%
05:00 +13°C° 0.3 mm 2 m/s 730 mmHg 96%
06:00 +14°C° 0 mm 2 m/s 730 mmHg 92%
07:00 +15°C° 0 mm 2 m/s 730 mmHg 88%
08:00 +16°C° 0 mm 1 m/s 730 mmHg 84%
09:00 +18°C° 0.3 mm 1 m/s 730 mmHg 80%
10:00 +19°C° 0.3 mm 1 m/s 730 mmHg 76%
11:00 +20°C° 0.3 mm 1 m/s 730 mmHg 72%
12:00 +20°C° 1.1 mm 1 m/s 729 mmHg 72%
13:00 +20°C° 1.1 mm 1 m/s 729 mmHg 72%
14:00 +20°C° 1.1 mm 1 m/s 729 mmHg 72%
15:00 +19°C° 1 mm 2 m/s 729 mmHg 75%
16:00 +18°C° 1 mm 2 m/s 729 mmHg 78%
17:00 +18°C° 1 mm 2 m/s 729 mmHg 80%
18:00 +16°C° 0.7 mm 3 m/s 729 mmHg 85%
19:00 +14°C° 0.7 mm 3 m/s 729 mmHg 89%
20:00 +13°C° 0.7 mm 3 m/s 729 mmHg 93%
21:00 +12°C° 0.1 mm 4 m/s 729 mmHg 94%
22:00 +12°C° 0.1 mm 4 m/s 729 mmHg 95%
23:00 +11°C° 0.1 mm 4 m/s 729 mmHg 95%

Amanhã, 19 Maio, Quarta-feira

Tempo Temperatura Precipitação Vento Pressão Humidade
00:00 +11°C° 0.1 mm 4 m/s 730 mmHg 95%
01:00 +12°C° 0.1 mm 5 m/s 730 mmHg 95%
02:00 +12°C° 0.1 mm 5 m/s 730 mmHg 95%
03:00 +12°C° 0.4 mm 5 m/s 730 mmHg 95%
04:00 +12°C° 0.4 mm 5 m/s 730 mmHg 95%
05:00 +10°C° 0.4 mm 6 m/s 731 mmHg 95%
06:00 +10°C° 1.5 mm 6 m/s 731 mmHg 94%
07:00 +10°C° 1.5 mm 6 m/s 732 mmHg 93%
08:00 +10°C° 1.5 mm 6 m/s 732 mmHg 92%
09:00 +11°C° 0.6 mm 6 m/s 733 mmHg 90%
10:00 +11°C° 0.6 mm 6 m/s 733 mmHg 88%
11:00 +13°C° 0.6 mm 6 m/s 734 mmHg 85%
12:00 +13°C° 0.1 mm 6 m/s 734 mmHg 84%
13:00 +13°C° 0.1 mm 6 m/s 734 mmHg 83%
14:00 +14°C° 0.1 mm 5 m/s 734 mmHg 81%
15:00 +14°C° 0.1 mm 5 m/s 735 mmHg 82%
16:00 +14°C° 0.1 mm 5 m/s 735 mmHg 82%
17:00 +14°C° 0.1 mm 5 m/s 735 mmHg 82%
18:00 +13°C° 0.1 mm 4 m/s 735 mmHg 84%
19:00 +12°C° 0.1 mm 4 m/s 735 mmHg 87%
20:00 +11°C° 0.1 mm 3 m/s 736 mmHg 89%
21:00 +11°C° 0 mm 3 m/s 736 mmHg 90%
22:00 +11°C° 0 mm 3 m/s 736 mmHg 91%
23:00 +10°C° 0 mm 3 m/s 736 mmHg 92%

Depois de amanhã, 20 Maio, Quinta-feira

Tempo Temperatura Precipitação Vento Pressão Humidade
00:00 +10°C° 0 mm 3 m/s 735 mmHg 92%
01:00 +10°C° 0 mm 3 m/s 735 mmHg 93%
02:00 +10°C° 0 mm 2 m/s 735 mmHg 93%
03:00 +10°C° 0 mm 2 m/s 735 mmHg 94%
04:00 +10°C° 0 mm 2 m/s 735 mmHg 94%
05:00 +9°C° 0 mm 2 m/s 735 mmHg 95%
06:00 +10°C° 0 mm 2 m/s 736 mmHg 91%
07:00 +12°C° 0 mm 2 m/s 736 mmHg 86%
08:00 +12°C° 0 mm 3 m/s 736 mmHg 82%
09:00 +13°C° 0.2 mm 3 m/s 736 mmHg 78%
10:00 +14°C° 0.2 mm 3 m/s 735 mmHg 73%
11:00 +16°C° 0.2 mm 3 m/s 735 mmHg 69%
12:00 +16°C° 0.4 mm 3 m/s 735 mmHg 69%
13:00 +15°C° 0.4 mm 4 m/s 735 mmHg 69%
14:00 +17°C° 0.4 mm 4 m/s 735 mmHg 69%
15:00 +15°C° 0.2 mm 4 m/s 735 mmHg 70%
16:00 +15°C° 0.2 mm 4 m/s 735 mmHg 71%
17:00 +15°C° 0.2 mm 4 m/s 735 mmHg 72%
18:00 +13°C° 0.1 mm 4 m/s 735 mmHg 78%
19:00 +12°C° 0.1 mm 3 m/s 736 mmHg 84%
20:00 +10°C° 0.1 mm 3 m/s 736 mmHg 90%
21:00 +10°C° 0 mm 3 m/s 736 mmHg 91%
22:00 +9°C° 0 mm 2 m/s 736 mmHg 92%
23:00 +8°C° 0 mm 2 m/s 737 mmHg 93%

21 Maio, Sexta-feira

Tempo Temperatura Precipitação Vento Pressão Humidade
00:00 +8°C° 0 mm 3 m/s 737 mmHg 93%
01:00 +8°C° 0 mm 3 m/s 737 mmHg 94%
02:00 +7°C° 0 mm 4 m/s 737 mmHg 94%
03:00 +7°C° 0 mm 4 m/s 737 mmHg 93%
04:00 +7°C° 0 mm 4 m/s 737 mmHg 93%
05:00 +7°C° 0 mm 4 m/s 738 mmHg 93%
06:00 +8°C° 0 mm 4 m/s 738 mmHg 88%
07:00 +8°C° 0 mm 4 m/s 739 mmHg 83%
08:00 +10°C° 0 mm 4 m/s 739 mmHg 78%
09:00 +12°C° 0 mm 5 m/s 740 mmHg 73%
10:00 +13°C° 0 mm 5 m/s 740 mmHg 67%
11:00 +14°C° 0 mm 5 m/s 740 mmHg 62%
12:00 +15°C° 0 mm 5 m/s 740 mmHg 58%
13:00 +15°C° 0 mm 5 m/s 740 mmHg 54%
14:00 +15°C° 0 mm 5 m/s 741 mmHg 50%
15:00 +15°C° 0 mm 4 m/s 741 mmHg 53%
16:00 +15°C° 0 mm 4 m/s 741 mmHg 55%
17:00 +14°C° 0 mm 4 m/s 741 mmHg 57%
18:00 +13°C° 0 mm 3 m/s 741 mmHg 63%
19:00 +11°C° 0 mm 3 m/s 741 mmHg 69%
20:00 +9°C° 0 mm 2 m/s 741 mmHg 75%
21:00 +9°C° 0 mm 2 m/s 741 mmHg 76%
22:00 +8°C° 0 mm 2 m/s 742 mmHg 78%
23:00 +7°C° 0 mm 2 m/s 742 mmHg 80%

22 Maio, Sábado

Tempo Temperatura Precipitação Vento Pressão Humidade
00:00 +7°C° 0 mm 2 m/s 742 mmHg 81%
01:00 +6°C° 0 mm 2 m/s 742 mmHg 82%
02:00 +5°C° 0 mm 3 m/s 742 mmHg 82%
03:00 +5°C° 0 mm 2 m/s 742 mmHg 83%
04:00 +5°C° 0 mm 2 m/s 742 mmHg 83%
05:00 +5°C° 0 mm 2 m/s 742 mmHg 84%
06:00 +8°C° 0 mm 1 m/s 742 mmHg 77%
07:00 +11°C° 0 mm 1 m/s 742 mmHg 70%
08:00 +13°C° 0 mm 1 m/s 742 mmHg 63%
09:00 +14°C° 0 mm 1 m/s 742 mmHg 58%
10:00 +15°C° 0 mm 1 m/s 742 mmHg 53%
11:00 +16°C° 0 mm 1 m/s 742 mmHg 49%
12:00 +18°C° 0 mm 1 m/s 742 mmHg 47%
13:00 +19°C° 0 mm 1 m/s 741 mmHg 46%
14:00 +19°C° 0 mm 1 m/s 741 mmHg 45%
15:00 +19°C° 0 mm 1 m/s 741 mmHg 47%
16:00 +18°C° 0 mm 2 m/s 741 mmHg 48%
17:00 +18°C° 0 mm 2 m/s 741 mmHg 50%
18:00 +16°C° 0 mm 2 m/s 740 mmHg 57%
19:00 +15°C° 0 mm 2 m/s 740 mmHg 63%
20:00 +13°C° 0 mm 2 m/s 740 mmHg 70%
21:00 +12°C° 0 mm 2 m/s 741 mmHg 71%
22:00 +10°C° 0 mm 3 m/s 741 mmHg 72%
23:00 +9°C° 0 mm 3 m/s 741 mmHg 74%

23 Maio, Domingo

Tempo Temperatura Precipitação Vento Pressão Humidade
00:00 +9°C° 0 mm 3 m/s 741 mmHg 76%
01:00 +9°C° 0 mm 3 m/s 740 mmHg 77%
02:00 +9°C° 0 mm 3 m/s 740 mmHg 79%
03:00 +9°C° 0 mm 3 m/s 740 mmHg 83%
04:00 +9°C° 0 mm 3 m/s 740 mmHg 86%
05:00 +9°C° 0 mm 3 m/s 740 mmHg 90%
06:00 +10°C° 0 mm 3 m/s 740 mmHg 85%
07:00 +12°C° 0 mm 3 m/s 740 mmHg 81%
08:00 +14°C° 0 mm 4 m/s 740 mmHg 76%
09:00 +15°C° 0 mm 4 m/s 740 mmHg 71%
10:00 +17°C° 0 mm 3 m/s 740 mmHg 66%
11:00 +19°C° 0 mm 3 m/s 740 mmHg 61%
12:00 +19°C° 0 mm 3 m/s 740 mmHg 59%
13:00 +20°C° 0 mm 3 m/s 740 mmHg 57%
14:00 +20°C° 0 mm 2 m/s 740 mmHg 56%
15:00 +20°C° 0 mm 2 m/s 739 mmHg 59%
16:00 +21°C° 0 mm 1 m/s 739 mmHg 62%
17:00 +21°C° 0 mm 1 m/s 739 mmHg 65%
18:00 +19°C° 0 mm 1 m/s 739 mmHg 68%
19:00 +18°C° 0 mm 1 m/s 739 mmHg 72%
20:00 +16°C° 0 mm 1 m/s 739 mmHg 76%
21:00 +15°C° 0 mm 1 m/s 739 mmHg 78%
22:00 +15°C° 0 mm 1 m/s 739 mmHg 80%
23:00 +14°C° 0 mm 1 m/s 739 mmHg 82%
Mostrar mais

Necessitamos do seu Consentimento

A Meteoprog e os seus Fornecedores de Serviços podem armazenar e aceder a dados pessoais como cookies, identificadores do dispositivo ou outras tecnologias semelhantes existentes no seu dispositivo e processar estes dados para personalizar conteúdos e anúncios, assim como funcionalidades nas redes sociais e análise de tráfego.

  • Armazenar e/ou aceder a informações no seu dispositivo

    Os cookies, identificadores do dispositivo ou outras informações podem ser armazenados ou acedidos no seu dispositivo, para os fins acima indicados.

  • Anúncios e conteúdos personalizados, medição de anúncios e conteúdos, dados sobre o público-alvo e desenvolvimento de produtos

    Os anúncios e os conteúdos podem ser personalizados com base num perfil. Podem ser adicionados dados adicionais para uma maior personalização dos anúncios e dos conteúdos. A eficácia dos anúncios e dos conteúdos pode ser medida. Podem ser obtidas informações sobre o público que visualizou os anúncios e os conteúdos. Estes dados podem ser usados para desenvolver ou melhorar sistemas, softwares ou a experiência do utilizador.

Ao clicar em "Eu concordo”, permitirá o uso de cookies, identificadores do dispositivo e web beacons mencionados ou outras tecnologias semelhantes. As configurações do navegador do seu dispositivo podem ser alteradas.

Para certos fins, podem ser invocados interesses legítimos ao invés de consentimento. Pode ler mais informação sobre este assunto na nossa Política de Privacidade e Cookies.